RS-44 & BREEZE-KM R/B

Last updated on Sun Apr 12 2026 00:03:15 GMT+0000 (Coordinated Universal Time)

1 44909U 19096E 26101.47319112 .00000013 00000+0 13610-4 0 9997 2 44909 82.5261 24.0333 0216548 300.5676 57.4216 12.79747941293819
UTC large
Height (km)
Speed (km/s)
/
Latitude / Longitude
Inclination (degrees)
Orbital Period (minutes)
Azimuth
Elevation
Range (km)
Doppler Factor

Next 0 passes for location: London (51.5072 / 0.1276)

Sorry there are no passes over London.
RS-44 & BREEZE-KM R/B